Time,TemperatureF,DewpointF,PressureIn,WindDirection,WindDirectionDegrees,WindSpeedMPH,WindSpeedGustMPH,Humidity,HourlyPrecipIn,Conditions,Clouds,dailyrainin,SoftwareType,DateUTC
2013-06-06 00:01:00,58.0,51.7,29.98,NNE,25,1.6,2.2,79,0.00,,,0.00,WUHU216HW,2013-06-06 04:01:00,
2013-06-06 00:02:00,58.0,51.7,29.98,NNE,18,2.1,3.1,79,0.00,,,0.00,WUHU216HW,2013-06-06 04:02:00,
2013-06-06 00:03:00,58.0,51.3,29.98,NNE,18,1.8,2.7,78,0.00,,,0.00,WUHU216HW,2013-06-06 04:03:00,
2013-06-06 00:05:00,58.0,51.7,29.98,NNE,31,2.1,3.4,79,0.00,,,0.00,WUHU216HW,2013-06-06 04:05:00,
2013-06-06 00:08:00,57.8,51.5,29.98,NNE,25,1.5,2.0,79,0.00,,,0.00,WUHU216HW,2013-06-06 04:08:00,
2013-06-06 00:13:00,57.8,51.5,29.98,ENE,60,2.2,2.7,79,0.00,,,0.00,WUHU216HW,2013-06-06 04:13:00,
2013-06-06 00:18:00,57.6,51.3,29.99,NNE,25,2.1,3.4,79,0.00,,,0.00,WUHU216HW,2013-06-06 04:18:00,
2013-06-06 00:23:00,57.6,51.3,29.99,North,359,2.1,3.1,79,0.00,,,0.00,WUHU216HW,2013-06-06 04:23:00,
2013-06-06 00:29:00,57.4,51.1,29.99,NE,44,2.5,2.7,79,0.00,,,0.00,WUHU216HW,2013-06-06 04:29:00,
2013-06-06 00:34:00,57.2,51.3,29.98,NNE,31,1.6,3.4,81,0.00,,,0.00,WUHU216HW,2013-06-06 04:34:00,
2013-06-06 00:39:00,57.2,51.3,29.98,NNW,335,3.2,4.7,81,0.00,,,0.00,WUHU216HW,2013-06-06 04:39:00,
2013-06-06 00:44:00,57.1,51.2,29.98,NE,38,2.5,2.9,81,0.00,,,0.00,WUHU216HW,2013-06-06 04:44:00,
2013-06-06 00:49:00,57.1,51.6,29.99,NNE,28,1.4,2.2,82,0.00,,,0.00,WUHU216HW,2013-06-06 04:49:00,
2013-06-06 00:54:00,57.1,51.6,29.99,North,0,2.8,3.8,82,0.00,,,0.00,WUHU216HW,2013-06-06 04:54:00,
2013-06-06 00:59:00,56.9,51.4,29.98,NNW,341,1.3,1.3,82,0.00,,,0.00,WUHU216HW,2013-06-06 04:59:00,
2013-06-06 01:04:00,56.9,51.0,29.98,NNE,17,1.9,3.6,81,0.00,,,0.00,WUHU216HW,2013-06-06 05:04:00,
2013-06-06 01:09:00,56.9,51.0,29.98,East,81,1.3,2.7,81,0.00,,,0.00,WUHU216HW,2013-06-06 05:09:00,
2013-06-06 01:14:00,56.7,51.2,29.98,NE,41,1.9,2.9,82,0.00,,,0.00,WUHU216HW,2013-06-06 05:14:00,
2013-06-06 01:19:00,56.7,50.8,29.98,ENE,61,2.1,3.1,81,0.00,,,0.00,WUHU216HW,2013-06-06 05:19:00,
2013-06-06 01:24:00,56.5,50.6,29.98,ENE,70,2.9,4.7,81,0.00,,,0.00,WUHU216HW,2013-06-06 05:24:00,
2013-06-06 01:29:00,56.5,51.0,29.98,NNE,14,2.5,3.8,82,0.00,,,0.00,WUHU216HW,2013-06-06 05:29:00,
2013-06-06 01:34:00,56.5,51.0,29.98,North,6,2.2,2.9,82,0.00,,,0.00,WUHU216HW,2013-06-06 05:34:00,
2013-06-06 01:39:00,56.2,50.7,29.98,North,4,2.4,3.4,82,0.00,,,0.00,WUHU216HW,2013-06-06 05:39:00,
2013-06-06 01:44:00,56.2,50.7,29.98,NE,52,2.7,3.4,82,0.00,,,0.00,WUHU216HW,2013-06-06 05:44:00,
2013-06-06 01:49:00,56.0,50.5,29.97,ENE,64,2.1,2.5,82,0.00,,,0.00,WUHU216HW,2013-06-06 05:49:00,
2013-06-06 01:54:00,56.0,50.9,29.97,NNE,23,1.0,1.3,83,0.00,,,0.00,WUHU216HW,2013-06-06 05:54:00,
2013-06-06 02:00:00,56.0,50.9,29.97,ESE,108,1.1,2.2,83,0.00,,,0.00,WUHU216HW,2013-06-06 06:00:00,
2013-06-06 02:05:00,55.8,50.7,29.97,NNE,29,2.4,2.9,83,0.00,,,0.00,WUHU216HW,2013-06-06 06:05:00,
2013-06-06 02:10:00,55.8,50.7,29.97,ENE,57,1.6,2.5,83,0.00,,,0.00,WUHU216HW,2013-06-06 06:10:00,
2013-06-06 02:15:00,55.8,51.0,29.97,East,95,1.4,1.6,84,0.00,,,0.00,WUHU216HW,2013-06-06 06:15:00,
2013-06-06 02:20:00,55.8,50.7,29.97,North,357,1.4,2.2,83,0.00,,,0.00,WUHU216HW,2013-06-06 06:20:00,
2013-06-06 02:25:00,55.6,50.8,29.97,North,2,1.1,1.6,84,0.00,,,0.00,WUHU216HW,2013-06-06 06:25:00,
2013-06-06 02:30:00,55.6,50.8,29.97,NNE,15,0.9,1.6,84,0.00,,,0.00,WUHU216HW,2013-06-06 06:30:00,
2013-06-06 02:35:00,55.4,50.6,29.97,ENE,62,1.8,3.1,84,0.00,,,0.00,WUHU216HW,2013-06-06 06:35:00,
2013-06-06 02:40:00,55.4,50.6,29.96,ENE,57,2.5,2.9,84,0.00,,,0.00,WUHU216HW,2013-06-06 06:40:00,
2013-06-06 02:45:00,55.6,50.8,29.96,East,94,3.3,4.0,84,0.00,,,0.00,WUHU216HW,2013-06-06 06:45:00,
2013-06-06 02:50:00,55.6,50.5,29.95,ENE,59,2.3,3.1,83,0.00,,,0.00,WUHU216HW,2013-06-06 06:50:00,
2013-06-06 02:56:00,55.8,50.7,29.95,NE,53,3.4,5.4,83,0.00,,,0.00,WUHU216HW,2013-06-06 06:56:00,
2013-06-06 03:01:00,55.8,50.3,29.95,ENE,64,2.5,3.6,82,0.00,,,0.00,WUHU216HW,2013-06-06 07:01:00,
2013-06-06 03:06:00,56.2,50.3,29.94,ESE,118,3.4,4.7,81,0.00,,,0.00,WUHU216HW,2013-06-06 07:06:00,
2013-06-06 03:11:00,56.2,49.9,29.94,ENE,58,3.4,5.8,79,0.00,,,0.00,WUHU216HW,2013-06-06 07:11:00,
2013-06-06 03:16:00,56.2,49.9,29.94,East,87,3.8,5.6,79,0.00,,,0.00,WUHU216HW,2013-06-06 07:16:00,
2013-06-06 03:21:00,56.2,49.9,29.94,East,86,2.9,6.0,79,0.00,,,0.00,WUHU216HW,2013-06-06 07:21:00,
2013-06-06 03:26:00,56.2,49.6,29.94,ESE,108,4.8,7.2,78,0.00,,,0.00,WUHU216HW,2013-06-06 07:26:00,
2013-06-06 03:31:00,56.2,48.8,29.94,East,84,6.5,8.3,76,0.00,,,0.00,WUHU216HW,2013-06-06 07:31:00,
2013-06-06 03:36:00,56.3,48.5,29.94,East,94,2.7,4.0,75,0.00,,,0.00,WUHU216HW,2013-06-06 07:36:00,
2013-06-06 03:41:00,56.7,48.1,29.94,East,101,4.7,6.7,72,0.00,,,0.00,WUHU216HW,2013-06-06 07:41:00,
2013-06-06 03:46:00,56.9,47.4,29.94,ENE,76,4.1,9.6,70,0.00,,,0.00,WUHU216HW,2013-06-06 07:46:00,
2013-06-06 03:51:00,56.9,47.4,29.93,ESE,104,4.6,5.4,70,0.00,,,0.00,WUHU216HW,2013-06-06 07:51:00,
2013-06-06 03:56:00,57.1,47.6,29.93,East,90,4.8,5.4,70,0.00,,,0.00,WUHU216HW,2013-06-06 07:56:00,
2013-06-06 04:01:00,57.2,46.8,29.93,ENE,77,5.5,6.3,68,0.00,,,0.00,WUHU216HW,2013-06-06 08:01:00,
2013-06-06 04:07:00,57.2,46.8,29.93,ESE,113,5.5,6.3,68,0.00,,,0.00,WUHU216HW,2013-06-06 08:07:00,
2013-06-06 04:12:00,57.2,46.4,29.93,East,88,4.6,5.4,67,0.00,,,0.00,WUHU216HW,2013-06-06 08:12:00,
2013-06-06 04:17:00,57.2,46.8,29.93,East,96,4.6,6.0,68,0.00,,,0.00,WUHU216HW,2013-06-06 08:17:00,
2013-06-06 04:22:00,57.2,46.8,29.93,East,96,4.0,4.7,68,0.00,,,0.00,WUHU216HW,2013-06-06 08:22:00,
2013-06-06 04:27:00,57.2,46.8,29.93,ESE,106,4.6,5.1,68,0.00,,,0.00,WUHU216HW,2013-06-06 08:27:00,
2013-06-06 04:32:00,57.1,46.7,29.93,NE,35,1.1,1.6,68,0.00,,,0.00,WUHU216HW,2013-06-06 08:32:00,
2013-06-06 04:37:00,56.9,47.0,29.93,North,11,0.8,1.1,69,0.00,,,0.00,WUHU216HW,2013-06-06 08:37:00,
2013-06-06 04:42:00,56.7,46.8,29.93,NNE,30,1.6,2.7,69,0.00,,,0.00,WUHU216HW,2013-06-06 08:42:00,
2013-06-06 04:47:00,56.5,46.6,29.93,East,84,1.8,3.1,69,0.00,,,0.00,WUHU216HW,2013-06-06 08:47:00,
2013-06-06 04:52:00,56.5,46.6,29.92,East,83,1.3,1.8,69,0.00,,,0.00,WUHU216HW,2013-06-06 08:52:00,
2013-06-06 04:58:00,56.3,46.4,29.92,NE,45,2.3,3.8,69,0.00,,,0.00,WUHU216HW,2013-06-06 08:58:00,
2013-06-06 05:03:00,56.2,46.7,29.91,NE,54,1.8,2.9,70,0.00,,,0.00,WUHU216HW,2013-06-06 09:03:00,
2013-06-06 05:08:00,56.3,46.8,29.91,ENE,59,3.3,5.6,70,0.00,,,0.00,WUHU216HW,2013-06-06 09:08:00,
2013-06-06 05:13:00,56.2,46.7,29.92,North,9,1.7,2.0,70,0.00,,,0.00,WUHU216HW,2013-06-06 09:13:00,
2013-06-06 05:18:00,56.2,46.7,29.92,ESE,116,1.2,1.6,70,0.00,,,0.00,WUHU216HW,2013-06-06 09:18:00,
2013-06-06 05:23:00,56.2,46.7,29.92,ENE,59,1.2,2.5,70,0.00,,,0.00,WUHU216HW,2013-06-06 09:23:00,
2013-06-06 05:28:00,56.2,46.7,29.92,ESE,105,2.0,2.2,70,0.00,,,0.00,WUHU216HW,2013-06-06 09:28:00,
2013-06-06 05:33:00,56.0,46.5,29.91,ENE,68,0.3,0.4,70,0.00,,,0.00,WUHU216HW,2013-06-06 09:33:00,
2013-06-06 05:38:00,55.8,46.8,29.91,NE,50,1.4,1.8,71,0.00,,,0.00,WUHU216HW,2013-06-06 09:38:00,
2013-06-06 05:43:00,55.8,46.8,29.91,East,83,1.2,2.9,71,0.00,,,0.00,WUHU216HW,2013-06-06 09:43:00,
2013-06-06 05:48:00,55.8,46.8,29.91,East,82,1.9,3.4,71,0.00,,,0.00,WUHU216HW,2013-06-06 09:48:00,
2013-06-06 05:53:00,55.8,46.8,29.91,East,90,3.8,4.0,71,0.00,,,0.00,WUHU216HW,2013-06-06 09:53:00,
2013-06-06 05:58:00,55.8,46.8,29.91,East,86,1.8,2.5,71,0.00,,,0.00,WUHU216HW,2013-06-06 09:58:00,
2013-06-06 06:03:00,55.8,47.2,29.91,East,95,2.7,4.0,72,0.00,,,0.00,WUHU216HW,2013-06-06 10:03:00,
2013-06-06 06:08:00,55.8,47.2,29.91,ENE,78,3.0,4.0,72,0.00,,,0.00,WUHU216HW,2013-06-06 10:08:00,
2013-06-06 06:13:00,55.6,47.0,29.91,East,86,2.2,2.7,72,0.00,,,0.00,WUHU216HW,2013-06-06 10:13:00,
2013-06-06 06:18:00,55.8,47.2,29.91,North,11,1.5,1.8,72,0.00,,,0.00,WUHU216HW,2013-06-06 10:18:00,
2013-06-06 06:23:00,55.8,47.6,29.91,NNE,16,1.9,2.5,74,0.00,,,0.00,WUHU216HW,2013-06-06 10:23:00,
2013-06-06 06:29:00,55.8,47.6,29.90,ENE,75,2.2,2.9,74,0.00,,,0.00,WUHU216HW,2013-06-06 10:29:00,
2013-06-06 06:34:00,55.8,47.6,29.90,ESE,120,1.9,2.5,74,0.00,,,0.00,WUHU216HW,2013-06-06 10:34:00,
2013-06-06 06:39:00,55.8,47.6,29.90,ENE,70,3.2,4.5,74,0.00,,,0.00,WUHU216HW,2013-06-06 10:39:00,
2013-06-06 06:44:00,55.8,47.6,29.90,East,85,2.3,3.4,74,0.00,,,0.00,WUHU216HW,2013-06-06 10:44:00,
2013-06-06 06:49:00,55.8,47.6,29.90,ENE,76,1.4,2.0,74,0.00,,,0.00,WUHU216HW,2013-06-06 10:49:00,
2013-06-06 06:54:00,55.8,47.6,29.90,NE,41,0.8,1.6,74,0.00,,,0.00,WUHU216HW,2013-06-06 10:54:00,
2013-06-06 06:59:00,55.8,47.6,29.90,East,99,1.2,1.8,74,0.00,,,0.00,WUHU216HW,2013-06-06 10:59:00,
2013-06-06 07:04:00,55.8,48.0,29.90,East,81,0.6,1.1,75,0.00,,,0.00,WUHU216HW,2013-06-06 11:04:00,
2013-06-06 07:09:00,56.0,48.2,29.90,East,93,2.0,2.7,75,0.00,,,0.00,WUHU216HW,2013-06-06 11:09:00,
2013-06-06 07:14:00,56.0,48.2,29.90,East,87,2.2,2.7,75,0.00,,,0.00,WUHU216HW,2013-06-06 11:14:00,
2013-06-06 07:19:00,56.2,48.4,29.89,ENE,77,1.4,3.4,75,0.00,,,0.00,WUHU216HW,2013-06-06 11:19:00,
2013-06-06 07:24:00,56.3,48.5,29.89,NE,41,2.7,3.8,75,0.00,,,0.00,WUHU216HW,2013-06-06 11:24:00,
2013-06-06 07:30:00,56.5,48.7,29.89,North,359,0.7,1.1,75,0.00,,,0.00,WUHU216HW,2013-06-06 11:30:00,
2013-06-06 07:35:00,56.7,48.9,29.89,NNE,18,0.7,1.1,75,0.00,,,0.00,WUHU216HW,2013-06-06 11:35:00,
2013-06-06 07:40:00,56.7,48.9,29.89,East,90,3.7,4.0,75,0.00,,,0.00,WUHU216HW,2013-06-06 11:40:00,
2013-06-06 07:45:00,56.9,49.1,29.89,ENE,62,4.1,6.5,75,0.00,,,0.00,WUHU216HW,2013-06-06 11:45:00,
2013-06-06 07:50:00,57.1,48.8,29.89,ENE,68,1.8,3.8,74,0.00,,,0.00,WUHU216HW,2013-06-06 11:50:00,
2013-06-06 07:55:00,57.1,49.3,29.90,NNE,27,1.1,1.8,75,0.00,,,0.00,WUHU216HW,2013-06-06 11:55:00,
2013-06-06 08:00:00,57.1,48.8,29.90,East,80,0.7,1.1,74,0.00,,,0.00,WUHU216HW,2013-06-06 12:00:00,
2013-06-06 08:06:00,57.2,49.4,29.90,ENE,64,2.9,3.4,75,0.00,,,0.00,WUHU216HW,2013-06-06 12:06:00,
2013-06-06 08:11:00,57.2,49.4,29.89,North,11,1.6,2.2,75,0.00,,,0.00,WUHU216HW,2013-06-06 12:11:00,
2013-06-06 08:16:00,57.2,48.9,29.89,NNE,18,0.9,1.1,74,0.00,,,0.00,WUHU216HW,2013-06-06 12:16:00,
2013-06-06 08:21:00,57.8,49.9,29.89,NE,38,1.7,3.4,75,0.00,,,0.00,WUHU216HW,2013-06-06 12:21:00,
2013-06-06 08:26:00,58.0,49.7,29.89,East,87,1.8,2.5,74,0.00,,,0.00,WUHU216HW,2013-06-06 12:26:00,
2013-06-06 08:31:00,58.1,50.2,29.89,East,87,2.2,4.7,75,0.00,,,0.00,WUHU216HW,2013-06-06 12:31:00,
2013-06-06 08:36:00,58.0,50.1,29.89,NNE,12,1.4,4.0,75,0.00,,,0.00,WUHU216HW,2013-06-06 12:36:00,
2013-06-06 08:41:00,57.6,49.7,29.88,NE,43,2.2,3.1,75,0.00,,,0.00,WUHU216HW,2013-06-06 12:41:00,
2013-06-06 08:46:00,57.2,49.8,29.87,NNE,31,1.7,2.0,76,0.00,,,0.00,WUHU216HW,2013-06-06 12:46:00,
2013-06-06 08:51:00,57.4,49.9,29.87,North,9,1.7,2.5,76,0.00,,,0.00,WUHU216HW,2013-06-06 12:51:00,
2013-06-06 08:56:00,57.6,50.1,29.88,NE,39,1.8,2.0,76,0.00,,,0.00,WUHU216HW,2013-06-06 12:56:00,
2013-06-06 09:02:00,58.0,50.5,29.88,North,5,2.4,3.8,76,0.00,,,0.00,WUHU216HW,2013-06-06 13:02:00,
2013-06-06 09:07:00,58.3,50.8,29.88,East,90,3.8,5.4,76,0.00,,,0.00,WUHU216HW,2013-06-06 13:07:00,
2013-06-06 09:12:00,58.9,51.4,29.88,ENE,76,2.5,3.4,76,0.00,,,0.00,WUHU216HW,2013-06-06 13:12:00,
2013-06-06 09:17:00,59.6,52.1,29.88,NE,56,2.3,3.4,76,0.00,,,0.00,WUHU216HW,2013-06-06 13:17:00,
2013-06-06 09:22:00,59.9,51.6,29.89,East,80,2.2,3.4,74,0.00,,,0.00,WUHU216HW,2013-06-06 13:22:00,
2013-06-06 09:27:00,59.9,51.6,29.89,ESE,106,1.7,2.9,74,0.00,,,0.00,WUHU216HW,2013-06-06 13:27:00,
2013-06-06 09:32:00,59.8,51.0,29.88,ENE,75,4.7,7.4,72,0.00,,,0.00,WUHU216HW,2013-06-06 13:32:00,
2013-06-06 09:37:00,59.0,50.7,29.89,ENE,67,3.0,4.9,74,0.00,,,0.00,WUHU216HW,2013-06-06 13:37:00,
2013-06-06 09:42:00,58.7,50.4,29.88,ENE,76,2.5,3.8,74,0.00,,,0.00,WUHU216HW,2013-06-06 13:42:00,
2013-06-06 09:47:00,58.5,50.6,29.88,ENE,68,2.2,2.5,75,0.00,,,0.00,WUHU216HW,2013-06-06 13:47:00,
2013-06-06 09:52:00,58.7,50.8,29.88,NNE,25,1.8,2.2,75,0.00,,,0.00,WUHU216HW,2013-06-06 13:52:00,
2013-06-06 09:57:00,59.0,51.1,29.88,NE,56,2.0,3.4,75,0.00,,,0.00,WUHU216HW,2013-06-06 13:57:00,
2013-06-06 10:03:00,59.8,51.9,29.88,NE,40,3.7,6.3,75,0.00,,,0.00,WUHU216HW,2013-06-06 14:03:00,
2013-06-06 10:08:00,60.5,52.6,29.89,East,90,1.8,1.8,75,0.00,,,0.00,WUHU216HW,2013-06-06 14:08:00,
2013-06-06 10:13:00,61.2,53.2,29.89,NNE,15,2.5,2.9,75,0.00,,,0.00,WUHU216HW,2013-06-06 14:13:00,
2013-06-06 10:18:00,61.7,53.7,29.88,North,358,3.0,3.4,75,0.00,,,0.00,WUHU216HW,2013-06-06 14:18:00,
2013-06-06 10:23:00,62.3,53.9,29.88,East,94,3.5,4.0,74,0.00,,,0.00,WUHU216HW,2013-06-06 14:23:00,
2013-06-06 10:28:00,62.5,54.1,29.89,East,81,3.5,5.6,74,0.00,,,0.00,WUHU216HW,2013-06-06 14:28:00,
2013-06-06 10:33:00,62.5,53.7,29.89,East,81,2.6,6.9,72,0.00,,,0.00,WUHU216HW,2013-06-06 14:33:00,
2013-06-06 10:38:00,62.3,53.5,29.89,ENE,65,3.2,5.4,72,0.00,,,0.00,WUHU216HW,2013-06-06 14:38:00,
2013-06-06 10:43:00,62.5,53.2,29.89,ENE,61,2.0,2.5,71,0.00,,,0.00,WUHU216HW,2013-06-06 14:43:00,
2013-06-06 10:48:00,62.6,53.7,29.89,ENE,65,2.1,2.5,72,0.00,,,0.00,WUHU216HW,2013-06-06 14:48:00,
2013-06-06 10:54:00,63.2,53.5,29.89,NE,42,2.1,2.9,70,0.00,,,0.00,WUHU216HW,2013-06-06 14:54:00,
2013-06-06 10:59:00,63.4,53.7,29.89,North,9,4.2,5.1,70,0.00,,,0.00,WUHU216HW,2013-06-06 14:59:00,
2013-06-06 11:04:00,63.4,54.1,29.89,East,81,5.2,5.8,71,0.00,,,0.00,WUHU216HW,2013-06-06 15:04:00,
2013-06-06 11:09:00,63.5,53.7,29.89,NNE,24,1.9,3.4,70,0.00,,,0.00,WUHU216HW,2013-06-06 15:09:00,
2013-06-06 11:14:00,63.9,54.6,29.89,NE,35,1.6,2.0,71,0.00,,,0.00,WUHU216HW,2013-06-06 15:14:00,
2013-06-06 11:20:00,63.9,54.1,29.89,ENE,63,1.4,2.0,70,0.00,,,0.00,WUHU216HW,2013-06-06 15:20:00,
2013-06-06 11:25:00,63.9,53.7,29.89,East,83,3.4,3.8,69,0.00,,,0.00,WUHU216HW,2013-06-06 15:25:00,
2013-06-06 11:30:00,64.1,54.3,29.89,NNE,29,2.2,3.1,70,0.00,,,0.00,WUHU216HW,2013-06-06 15:30:00,
2013-06-06 11:35:00,64.4,54.2,29.89,ENE,66,2.8,3.4,69,0.00,,,0.00,WUHU216HW,2013-06-06 15:35:00,
2013-06-06 11:40:00,64.1,54.3,29.89,NNE,27,1.6,2.7,70,0.00,,,0.00,WUHU216HW,2013-06-06 15:40:00,
2013-06-06 11:45:00,64.4,55.1,29.89,NE,56,1.9,3.6,71,0.00,,,0.00,WUHU216HW,2013-06-06 15:45:00,
2013-06-06 11:50:00,64.4,55.1,29.89,NNE,12,3.8,4.7,71,0.00,,,0.00,WUHU216HW,2013-06-06 15:50:00,
2013-06-06 11:55:00,64.4,54.6,29.89,East,90,3.7,4.9,70,0.00,,,0.00,WUHU216HW,2013-06-06 15:55:00,
2013-06-06 12:00:00,64.4,54.6,29.89,North,8,2.2,3.1,70,0.00,,,0.00,WUHU216HW,2013-06-06 16:00:00,
2013-06-06 12:05:00,63.9,53.7,29.89,ENE,67,2.2,3.1,69,0.00,,,0.00,WUHU216HW,2013-06-06 16:05:00,
2013-06-06 12:10:00,63.4,53.7,29.88,ENE,63,2.6,3.6,70,0.00,,,0.00,WUHU216HW,2013-06-06 16:10:00,
2013-06-06 12:15:00,63.2,53.9,29.88,NNW,348,4.1,6.3,71,0.00,,,0.00,WUHU216HW,2013-06-06 16:15:00,
2013-06-06 12:20:00,63.4,54.1,29.88,East,79,4.3,5.4,71,0.00,,,0.00,WUHU216HW,2013-06-06 16:20:00,
2013-06-06 12:26:00,63.5,54.6,29.88,ENE,68,1.8,2.2,72,0.00,,,0.00,WUHU216HW,2013-06-06 16:26:00,
2013-06-06 12:31:00,64.1,55.2,29.88,NNE,15,4.0,5.8,72,0.00,,,0.00,WUHU216HW,2013-06-06 16:31:00,
2013-06-06 12:36:00,65.0,56.1,29.88,NNE,16,4.7,5.6,72,0.00,,,0.00,WUHU216HW,2013-06-06 16:36:00,
2013-06-06 12:41:00,65.9,56.5,29.88,ENE,70,3.9,4.3,71,0.00,,,0.00,WUHU216HW,2013-06-06 16:41:00,
2013-06-06 12:46:00,67.3,57.4,29.88,ENE,72,4.7,8.3,70,0.00,,,0.00,WUHU216HW,2013-06-06 16:46:00,
2013-06-06 12:51:00,68.2,58.3,29.88,NE,34,4.0,4.0,70,0.00,,,0.00,WUHU216HW,2013-06-06 16:51:00,
2013-06-06 12:56:00,68.2,56.9,29.88,North,353,2.7,3.6,67,0.00,,,0.00,WUHU216HW,2013-06-06 16:56:00,
2013-06-06 13:01:00,67.5,56.2,29.88,NE,37,3.3,5.1,67,0.00,,,0.00,WUHU216HW,2013-06-06 17:01:00,
2013-06-06 13:07:00,67.3,56.5,29.87,NE,52,3.6,5.8,68,0.00,,,0.00,WUHU216HW,2013-06-06 17:07:00,
2013-06-06 13:12:00,67.7,57.3,29.87,NE,36,4.4,4.7,69,0.00,,,0.00,WUHU216HW,2013-06-06 17:12:00,
2013-06-06 13:17:00,68.0,57.2,29.87,North,7,2.8,3.8,68,0.00,,,0.00,WUHU216HW,2013-06-06 17:17:00,
2013-06-06 13:22:00,68.8,58.8,29.87,NNE,12,1.9,2.5,70,0.00,,,0.00,WUHU216HW,2013-06-06 17:22:00,
2013-06-06 13:27:00,69.5,58.1,29.87,NNE,14,3.8,5.6,67,0.00,,,0.00,WUHU216HW,2013-06-06 17:27:00,
2013-06-06 13:32:00,69.1,57.3,29.86,ENE,77,6.9,8.5,66,0.00,,,0.00,WUHU216HW,2013-06-06 17:32:00,
2013-06-06 13:37:00,68.6,56.8,29.86,NE,51,3.4,5.6,66,0.00,,,0.00,WUHU216HW,2013-06-06 17:37:00,
2013-06-06 13:42:00,68.0,56.7,29.86,North,353,4.5,4.7,67,0.00,,,0.00,WUHU216HW,2013-06-06 17:42:00,
2013-06-06 13:47:00,67.3,56.0,29.86,NE,37,4.6,6.7,67,0.00,,,0.00,WUHU216HW,2013-06-06 17:47:00,
2013-06-06 13:52:00,67.1,57.2,29.86,NE,51,3.8,4.9,70,0.00,,,0.00,WUHU216HW,2013-06-06 17:52:00,
2013-06-06 13:58:00,67.5,57.1,29.86,NE,35,4.2,6.9,69,0.00,,,0.00,WUHU216HW,2013-06-06 17:58:00,
2013-06-06 14:03:00,68.6,58.7,29.86,NNE,12,5.4,8.1,70,0.00,,,0.00,WUHU216HW,2013-06-06 18:03:00,
2013-06-06 14:08:00,70.0,59.5,29.86,North,6,5.6,6.9,69,0.00,,,0.00,WUHU216HW,2013-06-06 18:08:00,
2013-06-06 14:13:00,69.8,57.9,29.86,NNW,346,5.2,6.7,66,0.00,,,0.00,WUHU216HW,2013-06-06 18:13:00,
2013-06-06 14:18:00,69.3,57.5,29.87,East,85,4.9,7.4,66,0.00,,,0.00,WUHU216HW,2013-06-06 18:18:00,
2013-06-06 14:23:00,68.8,57.5,29.87,NNE,13,5.3,8.1,67,0.00,,,0.00,WUHU216HW,2013-06-06 18:23:00,
2013-06-06 14:28:00,68.6,57.3,29.86,NNE,27,2.5,6.3,67,0.00,,,0.00,WUHU216HW,2013-06-06 18:28:00,
2013-06-06 14:33:00,68.8,57.9,29.86,ENE,57,4.0,5.4,68,0.00,,,0.00,WUHU216HW,2013-06-06 18:33:00,
2013-06-06 14:38:00,68.8,57.5,29.86,East,87,5.7,7.2,67,0.00,,,0.00,WUHU216HW,2013-06-06 18:38:00,
2013-06-06 14:43:00,68.8,57.9,29.86,East,92,2.8,4.5,68,0.00,,,0.00,WUHU216HW,2013-06-06 18:43:00,
2013-06-06 14:48:00,68.9,58.5,29.86,ENE,77,5.3,7.2,69,0.00,,,0.00,WUHU216HW,2013-06-06 18:48:00,
2013-06-06 14:54:00,69.5,58.1,29.86,North,3,5.5,6.5,67,0.00,,,0.00,WUHU216HW,2013-06-06 18:54:00,
2013-06-06 14:59:00,69.5,58.1,29.86,East,100,4.9,5.4,67,0.00,,,0.00,WUHU216HW,2013-06-06 18:59:00,
2013-06-06 15:04:00,69.8,57.9,29.86,ENE,69,3.3,8.9,66,0.00,,,0.00,WUHU216HW,2013-06-06 19:04:00,
2013-06-06 15:09:00,69.5,57.6,29.86,NE,51,3.6,5.6,66,0.00,,,0.00,WUHU216HW,2013-06-06 19:09:00,
2013-06-06 15:14:00,69.5,57.6,29.85,NE,36,4.2,6.5,66,0.00,,,0.00,WUHU216HW,2013-06-06 19:14:00,
2013-06-06 15:19:00,69.1,57.3,29.85,ESE,113,1.8,2.2,66,0.00,,,0.00,WUHU216HW,2013-06-06 19:19:00,
2013-06-06 15:24:00,69.5,58.1,29.85,NNE,26,5.1,6.0,67,0.00,,,0.00,WUHU216HW,2013-06-06 19:24:00,
2013-06-06 15:29:00,69.5,57.6,29.85,NE,52,3.0,4.0,66,0.00,,,0.00,WUHU216HW,2013-06-06 19:29:00,
2013-06-06 15:35:00,69.7,58.3,29.85,SW,224,3.0,4.3,67,0.00,,,0.00,WUHU216HW,2013-06-06 19:35:00,
2013-06-06 15:36:00,69.7,57.8,29.85,ENE,71,3.5,4.9,66,0.00,,,0.00,WUHU216HW,2013-06-06 19:36:00,
2013-06-06 15:41:00,69.8,57.9,29.85,NE,36,2.7,3.4,66,0.00,,,0.00,WUHU216HW,2013-06-06 19:41:00,
2013-06-06 15:46:00,69.8,57.9,29.85,ENE,65,5.1,7.6,66,0.00,,,0.00,WUHU216HW,2013-06-06 19:46:00,
2013-06-06 15:51:00,69.8,57.9,29.85,NE,55,3.7,4.9,66,0.00,,,0.00,WUHU216HW,2013-06-06 19:51:00,
2013-06-06 15:56:00,69.1,57.3,29.85,East,86,7.4,8.5,66,0.00,,,0.00,WUHU216HW,2013-06-06 19:56:00,
2013-06-06 16:01:00,68.8,57.5,29.85,East,97,6.1,8.1,67,0.00,,,0.00,WUHU216HW,2013-06-06 20:01:00,
2013-06-06 16:06:00,69.3,57.9,29.84,East,80,4.1,4.9,67,0.00,,,0.00,WUHU216HW,2013-06-06 20:06:00,
2013-06-06 16:12:00,69.5,57.6,29.84,ENE,76,3.2,4.7,66,0.00,,,0.00,WUHU216HW,2013-06-06 20:12:00,
2013-06-06 16:17:00,69.8,58.4,29.84,NE,49,3.1,4.7,67,0.00,,,0.00,WUHU216HW,2013-06-06 20:17:00,
2013-06-06 16:22:00,70.4,58.5,29.84,NE,50,4.0,6.3,66,0.00,,,0.00,WUHU216HW,2013-06-06 20:22:00,
2013-06-06 16:27:00,70.6,59.2,29.84,East,94,6.9,8.9,67,0.00,,,0.00,WUHU216HW,2013-06-06 20:27:00,
2013-06-06 16:32:00,70.7,59.3,29.84,East,97,11.3,13.6,67,0.00,,,0.00,WUHU216HW,2013-06-06 20:32:00,
2013-06-06 16:37:00,70.9,59.0,29.84,NNE,26,6.3,11.4,66,0.00,,,0.00,WUHU216HW,2013-06-06 20:37:00,
2013-06-06 16:42:00,70.6,58.7,29.84,NNE,29,2.1,2.2,66,0.00,,,0.00,WUHU216HW,2013-06-06 20:42:00,
2013-06-06 16:47:00,70.4,58.5,29.85,East,101,2.7,4.9,66,0.00,,,0.00,WUHU216HW,2013-06-06 20:47:00,
2013-06-06 16:52:00,69.7,57.8,29.85,NNW,345,3.6,4.3,66,0.00,,,0.00,WUHU216HW,2013-06-06 20:52:00,
2013-06-06 16:57:00,69.3,57.5,29.85,East,79,4.6,4.9,66,0.00,,,0.00,WUHU216HW,2013-06-06 20:57:00,
2013-06-06 17:02:00,68.6,57.3,29.85,NNE,24,4.3,5.4,67,0.00,,,0.00,WUHU216HW,2013-06-06 21:02:00,
2013-06-06 17:07:00,68.0,57.6,29.85,NNE,13,2.5,3.1,69,0.00,,,0.00,WUHU216HW,2013-06-06 21:07:00,
2013-06-06 17:12:00,67.3,57.4,29.85,SSW,195,1.3,3.4,70,0.00,,,0.00,WUHU216HW,2013-06-06 21:12:00,
2013-06-06 17:17:00,67.0,57.6,29.86,North,6,2.7,5.8,71,0.00,,,0.00,WUHU216HW,2013-06-06 21:17:00,
2013-06-06 17:22:00,66.4,57.0,29.86,NNE,15,6.1,6.9,71,0.00,,,0.00,WUHU216HW,2013-06-06 21:22:00,
2013-06-06 17:28:00,65.9,56.9,29.86,North,0,1.0,1.3,72,0.00,,,0.00,WUHU216HW,2013-06-06 21:28:00,
2013-06-06 17:33:00,65.5,57.0,29.86,NNE,15,1.7,2.0,74,0.00,,,0.00,WUHU216HW,2013-06-06 21:33:00,
2013-06-06 17:38:00,65.3,57.2,29.86,NNE,18,1.8,2.9,75,0.00,,,0.00,WUHU216HW,2013-06-06 21:38:00,
2013-06-06 17:43:00,65.2,56.7,29.86,NNW,346,3.3,4.7,74,0.00,,,0.00,WUHU216HW,2013-06-06 21:43:00,
2013-06-06 17:48:00,64.8,56.3,29.86,North,6,3.9,6.3,74,0.00,,,0.00,WUHU216HW,2013-06-06 21:48:00,
2013-06-06 17:53:00,64.1,56.0,29.86,NNE,25,3.1,4.7,75,0.00,,,0.00,WUHU216HW,2013-06-06 21:53:00,
2013-06-06 17:59:00,63.9,56.3,29.87,East,89,1.1,1.6,76,0.00,,,0.00,WUHU216HW,2013-06-06 21:59:00,
2013-06-06 18:04:00,63.7,56.1,29.87,NNE,28,4.1,6.0,76,0.00,,,0.00,WUHU216HW,2013-06-06 22:04:00,
2013-06-06 18:09:00,63.5,55.9,29.86,ENE,58,3.3,4.0,76,0.00,,,0.00,WUHU216HW,2013-06-06 22:09:00,
2013-06-06 18:14:00,63.4,55.8,29.86,NE,43,3.2,3.4,76,0.00,,,0.00,WUHU216HW,2013-06-06 22:14:00,
2013-06-06 18:19:00,63.0,55.4,29.87,North,0,4.3,5.8,76,0.00,,,0.00,WUHU216HW,2013-06-06 22:19:00,
2013-06-06 18:24:00,62.8,55.6,29.86,NE,50,3.0,3.4,77,0.00,,,0.00,WUHU216HW,2013-06-06 22:24:00,
2013-06-06 18:29:00,62.6,55.8,29.86,NNW,343,2.5,3.6,78,0.00,,,0.00,WUHU216HW,2013-06-06 22:29:00,
2013-06-06 18:34:00,62.6,55.4,29.86,ENE,65,3.0,3.8,77,0.00,,,0.00,WUHU216HW,2013-06-06 22:34:00,
2013-06-06 18:39:00,62.3,55.5,29.86,NE,48,3.0,4.0,78,0.00,,,0.00,WUHU216HW,2013-06-06 22:39:00,
2013-06-06 18:44:00,62.3,55.5,29.86,ENE,78,3.6,5.4,78,0.00,,,0.00,WUHU216HW,2013-06-06 22:44:00,
2013-06-06 18:49:00,61.9,55.1,29.86,NNE,12,2.8,3.4,78,0.00,,,0.00,WUHU216HW,2013-06-06 22:49:00,
2013-06-06 18:54:00,61.9,55.5,29.86,NNE,29,4.1,5.4,79,0.00,,,0.00,WUHU216HW,2013-06-06 22:54:00,
2013-06-06 18:59:00,61.7,55.3,29.85,NE,51,2.7,3.1,79,0.00,,,0.00,WUHU216HW,2013-06-06 22:59:00,
2013-06-06 19:04:00,61.7,55.3,29.85,ENE,64,3.3,4.5,79,0.00,,,0.00,WUHU216HW,2013-06-06 23:04:00,
2013-06-06 19:09:00,61.7,55.3,29.85,ENE,60,3.3,4.7,79,0.00,,,0.00,WUHU216HW,2013-06-06 23:09:00,
2013-06-06 19:15:00,61.9,55.5,29.85,North,11,4.9,5.4,79,0.00,,,0.00,WUHU216HW,2013-06-06 23:15:00,
2013-06-06 19:20:00,61.9,55.9,29.85,NE,49,3.2,4.0,81,0.00,,,0.00,WUHU216HW,2013-06-06 23:20:00,
2013-06-06 19:25:00,61.9,55.5,29.86,NE,42,2.0,3.4,79,0.00,,,0.00,WUHU216HW,2013-06-06 23:25:00,
2013-06-06 19:30:00,62.3,55.9,29.86,North,9,3.8,5.4,79,0.00,,,0.00,WUHU216HW,2013-06-06 23:30:00,
2013-06-06 19:35:00,61.9,55.5,29.86,NNE,28,3.7,4.5,79,0.00,,,0.00,WUHU216HW,2013-06-06 23:35:00,
2013-06-06 19:40:00,61.7,55.3,29.86,NE,39,3.6,6.3,79,0.00,,,0.00,WUHU216HW,2013-06-06 23:40:00,
2013-06-06 19:45:00,61.4,55.0,29.86,NE,42,3.6,4.9,79,0.00,,,0.00,WUHU216HW,2013-06-06 23:45:00,
2013-06-06 19:50:00,60.8,54.4,29.86,North,357,2.4,3.6,79,0.00,,,0.00,WUHU216HW,2013-06-06 23:50:00,
2013-06-06 19:55:00,60.5,54.1,29.86,NNE,16,5.8,6.3,79,0.00,,,0.00,WUHU216HW,2013-06-06 23:55:00,
2013-06-06 20:00:00,60.1,53.7,29.86,North,358,2.6,3.4,79,0.00,,,0.00,WUHU216HW,2013-06-07 00:00:00,
2013-06-06 20:05:00,60.1,54.1,29.86,North,9,3.3,4.0,81,0.00,,,0.00,WUHU216HW,2013-06-07 00:05:00,
2013-06-06 20:10:00,59.9,53.9,29.87,NE,39,2.1,3.8,81,0.00,,,0.00,WUHU216HW,2013-06-07 00:10:00,
2013-06-06 20:15:00,59.8,53.8,29.87,ENE,65,3.9,6.7,81,0.00,,,0.00,WUHU216HW,2013-06-07 00:15:00,
2013-06-06 20:20:00,59.4,53.8,29.87,ENE,57,2.1,2.7,82,0.00,,,0.00,WUHU216HW,2013-06-07 00:20:00,
2013-06-06 20:25:00,59.4,53.4,29.87,ENE,76,3.0,7.6,81,0.00,,,0.00,WUHU216HW,2013-06-07 00:25:00,
2013-06-06 20:30:00,59.2,53.3,29.88,NE,42,2.5,3.8,81,0.00,,,0.00,WUHU216HW,2013-06-07 00:30:00,
2013-06-06 20:35:00,59.0,53.1,29.89,ENE,74,1.7,2.5,81,0.00,,,0.00,WUHU216HW,2013-06-07 00:35:00,
2013-06-06 20:40:00,59.0,52.7,29.89,NE,53,1.5,1.8,79,0.00,,,0.00,WUHU216HW,2013-06-07 00:40:00,
2013-06-06 20:45:00,58.9,52.6,29.89,East,99,3.5,5.6,79,0.00,,,0.00,WUHU216HW,2013-06-07 00:45:00,
2013-06-06 20:50:00,58.7,52.4,29.88,NNE,21,2.8,3.6,79,0.00,,,0.00,WUHU216HW,2013-06-07 00:50:00,
2013-06-06 20:55:00,58.7,52.4,29.88,North,0,2.6,3.6,79,0.00,,,0.00,WUHU216HW,2013-06-07 00:55:00,
2013-06-06 21:00:00,58.7,52.4,29.88,NNE,17,3.0,5.1,79,0.00,,,0.00,WUHU216HW,2013-06-07 01:00:00,
2013-06-06 21:05:00,58.7,52.4,29.87,ENE,64,3.5,4.0,79,0.00,,,0.00,WUHU216HW,2013-06-07 01:05:00,
2013-06-06 21:10:00,58.7,52.4,29.87,East,89,1.9,2.2,79,0.00,,,0.00,WUHU216HW,2013-06-07 01:10:00,
2013-06-06 21:16:00,58.5,52.2,29.87,NNE,16,4.6,5.1,79,0.00,,,0.00,WUHU216HW,2013-06-07 01:16:00,
2013-06-06 21:21:00,58.3,52.0,29.87,NE,41,1.3,1.6,79,0.00,,,0.00,WUHU216HW,2013-06-07 01:21:00,
2013-06-06 21:26:00,58.3,52.0,29.87,ESE,118,1.0,1.1,79,0.00,,,0.00,WUHU216HW,2013-06-07 01:26:00,
2013-06-06 21:31:00,58.1,52.2,29.87,East,87,0.9,1.1,81,0.00,,,0.00,WUHU216HW,2013-06-07 01:31:00,
2013-06-06 21:36:00,58.1,52.2,29.87,ENE,62,3.4,4.7,81,0.00,,,0.00,WUHU216HW,2013-06-07 01:36:00,
2013-06-06 21:41:00,58.1,52.2,29.88,NNE,24,1.4,1.8,81,0.00,,,0.00,WUHU216HW,2013-06-07 01:41:00,
2013-06-06 21:46:00,58.0,52.1,29.88,East,92,1.3,1.6,81,0.00,,,0.00,WUHU216HW,2013-06-07 01:46:00,
2013-06-06 21:51:00,58.0,52.5,29.88,North,8,1.1,1.1,82,0.00,,,0.00,WUHU216HW,2013-06-07 01:51:00,
2013-06-06 21:56:00,58.0,52.5,29.88,NNE,23,0.9,2.0,82,0.00,,,0.00,WUHU216HW,2013-06-07 01:56:00,
2013-06-06 22:01:00,57.8,52.3,29.88,ENE,74,0.8,0.9,82,0.00,,,0.00,WUHU216HW,2013-06-07 02:01:00,
2013-06-06 22:06:00,57.6,52.1,29.88,East,83,1.0,1.8,82,0.00,,,0.00,WUHU216HW,2013-06-07 02:06:00,
2013-06-06 22:11:00,57.6,52.1,29.88,NE,36,1.3,2.7,82,0.00,,,0.00,WUHU216HW,2013-06-07 02:11:00,
2013-06-06 22:16:00,57.4,51.9,29.89,East,99,0.9,1.6,82,0.00,,,0.00,WUHU216HW,2013-06-07 02:16:00,
2013-06-06 22:21:00,57.2,51.7,29.89,East,96,2.0,2.5,82,0.00,,,0.00,WUHU216HW,2013-06-07 02:21:00,
2013-06-06 22:27:00,57.2,51.7,29.89,NE,50,0.4,1.1,82,0.00,,,0.00,WUHU216HW,2013-06-07 02:27:00,
2013-06-06 22:32:00,57.2,51.7,29.89,East,86,2.0,2.5,82,0.00,,,0.00,WUHU216HW,2013-06-07 02:32:00,
2013-06-06 22:37:00,57.2,51.7,29.89,ESE,107,0.9,1.3,82,0.00,,,0.00,WUHU216HW,2013-06-07 02:37:00,
2013-06-06 22:42:00,57.2,51.7,29.89,North,0,0.6,0.9,82,0.00,,,0.00,WUHU216HW,2013-06-07 02:42:00,
2013-06-06 22:47:00,57.1,51.9,29.89,NNE,18,0.7,1.1,83,0.00,,,0.00,WUHU216HW,2013-06-07 02:47:00,
2013-06-06 22:52:00,56.9,51.7,29.89,NNE,21,1.2,2.2,83,0.00,,,0.00,WUHU216HW,2013-06-07 02:52:00,
2013-06-06 22:57:00,56.9,51.7,29.89,NE,45,0.3,0.7,83,0.00,,,0.00,WUHU216HW,2013-06-07 02:57:00,
2013-06-06 23:02:00,56.9,51.7,29.89,NNE,25,0.4,0.9,83,0.00,,,0.00,WUHU216HW,2013-06-07 03:02:00,
2013-06-06 23:07:00,56.7,51.6,29.89,NE,42,0.6,1.1,83,0.00,,,0.00,WUHU216HW,2013-06-07 03:07:00,
2013-06-06 23:12:00,56.7,51.6,29.89,NNE,22,1.0,1.6,83,0.00,,,0.00,WUHU216HW,2013-06-07 03:12:00,
2013-06-06 23:17:00,56.5,51.4,29.89,NNE,23,0.4,0.4,83,0.00,,,0.00,WUHU216HW,2013-06-07 03:17:00,
2013-06-06 23:22:00,56.5,51.4,29.89,NE,55,0.2,0.4,83,0.00,,,0.00,WUHU216HW,2013-06-07 03:22:00,
2013-06-06 23:27:00,56.5,51.4,29.89,NNE,23,0.3,0.4,83,0.00,,,0.00,WUHU216HW,2013-06-07 03:27:00,
2013-06-06 23:32:00,56.5,51.7,29.88,NE,35,1.6,2.0,84,0.00,,,0.00,WUHU216HW,2013-06-07 03:32:00,
2013-06-06 23:37:00,56.3,51.5,29.88,North,3,1.4,2.2,84,0.00,,,0.00,WUHU216HW,2013-06-07 03:37:00,
2013-06-06 23:42:00,56.3,51.5,29.88,NNE,23,1.4,2.5,84,0.00,,,0.00,WUHU216HW,2013-06-07 03:42:00,
2013-06-06 23:48:00,56.3,51.5,29.87,ENE,62,0.7,0.9,84,0.00,,,0.00,WUHU216HW,2013-06-07 03:48:00,
2013-06-06 23:53:00,56.3,51.5,29.87,NNE,14,1.1,1.6,84,0.00,,,0.00,WUHU216HW,2013-06-07 03:53:00,
2013-06-06 23:58:00,56.2,51.4,29.87,NNE,31,1.3,1.8,84,0.00,,,0.00,WUHU216HW,2013-06-07 03:58:00,